板垣彗星

C/2009 E1 ( Itagaki )

English version
Home page
Updated on March 17, 2010

---------------------------------------------------------------------

・ プロフィール

発見日 2009年3月14日
発見光度 12.8等
発見者 板垣公一 (栃木県高根沢町)

・ 写真集

・ 軌道要素

Epoch 2009 Mar. 30.0 TT = JDT 2454920.5
T 2009 Apr. 7.92113 TT                                  MPC
q   0.5997203            (2000.0)            P               Q
z  +0.0249668      Peri.   48.95658     +0.26039210     +0.59130508
 +/-0.0000070      Node   105.96130     +0.45677051     -0.77190668
e   0.9850269      Incl.  127.45253     +0.85062133     +0.23349171

・ 星図

・ 光度変化

        m1 = 11.5 + 5 logΔ + 20.0 log r(t - 5)

---------------------------------------------------------------------

軌道要素はM.P.E.C. 2009-L10に掲載されたものです。
星図はステラナビゲータ Ver.8 (アストロアーツ) で作成したものです。
光度グラフはComet for Windowsで作成したものです。

---------------------------------------------------------------------

Copyright(C) Seiichi Yoshida (comet@aerith.net). All rights reserved.